Ponca City, OK

3:24 AM CDT on July 28, 2017 (GMT -0500)
Ponca City Municipal

Weather History for KPNC - April, 2014

Change the Weather History Date:

Monday, April 21, 2014

  Actual Average Record
Temperature  
Mean Temperature 68 °F -  
Max Temperature 78 °F 76 °F 92 °F (1961)
Min Temperature 57 °F 51 °F 31 °F (1966)
Cooling Degree Days 2    
Growing Degree Days 18 (Base 50)    
Moisture  
Dew Point 57 °F    
Average Humidity 74    
Maximum Humidity 88    
Minimum Humidity 45    
Precipitation  
Precipitation 0.10 in - - ()
Sea Level Pressure  
Sea Level Pressure 29.99 in    
Wind  
Wind Speed 3 mph (SE)    
Max Wind Speed 7 mph    
Max Gust Speed -    
Visibility 10 miles    
Events      
Averages and records for this station are not official NWS values.
T = Trace of Precipitation, MM = Missing Value Source: NWS Daily Summary

Daily Weather History Graph

Daily Weather History Graph

Search for Another Location

Airport or City:

Trip Planner

Search our weather history database for the weather conditions in past years. The results will help you decide how hot, cold, wet, or windy it might be!

Date:

Astronomy

Apr. 21, 2014 Rise Set
Actual Time 6:46 AM CDT 8:08 PM CDT
Civil Twilight 6:19 AM CDT 8:35 PM CDT
Nautical Twilight 5:47 AM CDT 9:07 PM CDT
Astronomical Twilight 5:13 AM CDT 9:41 PM CDT
Moon 1:37 AM CDT (4/21) 12:16 PM CDT (4/21)
Length of Visible Light 14h 15m
Length of Day
13h 21m
Waning Gibbous, 57% of the Moon is Illuminated
Apr 21
Waning Gibbous
Apr 22
Last Quarter
Apr 29
New
May 6
First Quarter
May 14
Full

Hourly Weather History & Observations

Time (CDT) Temp. Dew Point Humidity Pressure Visibility Wind Dir Wind Speed Gust Speed Precip Events Conditions
12:53 AM 61.0 °F 55.9 °F 83% 29.99 in 10.0 mi Calm Calm - N/A   Clear
1:53 AM 61.0 °F 55.9 °F 83% 29.98 in 10.0 mi South 4.6 mph - N/A   Mostly Cloudy
2:35 AM 60.8 °F 55.4 °F 82% 29.99 in 10.0 mi South 3.5 mph - N/A   Mostly Cloudy
2:53 AM 61.0 °F 55.9 °F 83% 29.96 in 10.0 mi SSE 6.9 mph - N/A   Overcast
3:53 AM 61.0 °F 55.9 °F 83% 29.94 in 10.0 mi SSE 5.8 mph - N/A   Overcast
4:53 AM 61.0 °F 55.9 °F 83% 29.96 in 10.0 mi SE 3.5 mph - N/A   Overcast
5:53 AM 61.0 °F 55.9 °F 83% 29.96 in 10.0 mi SSE 6.9 mph - N/A   Overcast
6:01 AM 60.8 °F 55.4 °F 82% 29.98 in 10.0 mi SSE 3.5 mph - N/A   Overcast
6:53 AM 61.0 °F 57.0 °F 87% 29.96 in 10.0 mi SE 3.5 mph - N/A   Overcast
7:53 AM 61.0 °F 57.0 °F 87% 29.99 in 8.0 mi SE 4.6 mph - N/A   Overcast
8:23 AM 60.8 °F 57.2 °F 88% 30.01 in 8.0 mi East 3.5 mph - N/A   Overcast
8:53 AM 61.0 °F 57.0 °F 87% 29.99 in 8.0 mi ESE 4.6 mph - N/A   Overcast
9:18 AM 60.8 °F 57.2 °F 88% 30.02 in 8.0 mi Calm Calm - N/A   Overcast
9:53 AM 62.1 °F 57.0 °F 84% 30.01 in 8.0 mi SE 4.6 mph - N/A   Overcast
10:18 AM 62.6 °F 57.2 °F 82% 30.02 in 8.0 mi ESE 4.6 mph - N/A   Overcast
10:53 AM 64.0 °F 57.9 °F 80% 30.01 in 9.0 mi Calm Calm - N/A   Overcast
11:34 AM 68.0 °F 57.2 °F 68% 30.02 in 10.0 mi Calm Calm - N/A   Scattered Clouds
11:53 AM 70.0 °F 57.9 °F 65% 30.00 in 10.0 mi Variable 5.8 mph - N/A   Scattered Clouds
12:07 PM 69.8 °F 57.2 °F 64% 30.01 in 10.0 mi Calm Calm - N/A   Mostly Cloudy
12:33 PM 73.4 °F 57.2 °F 57% 30.00 in 10.0 mi NE 6.9 mph - N/A   Scattered Clouds
12:53 PM 73.0 °F 57.0 °F 57% 29.97 in 10.0 mi Variable 3.5 mph - N/A   Partly Cloudy
1:53 PM 75.0 °F 55.9 °F 51% 29.96 in 10.0 mi SE 6.9 mph - N/A   Scattered Clouds
2:53 PM 75.9 °F 53.1 °F 45% 29.96 in 10.0 mi Variable 5.8 mph - N/A   Overcast
3:53 PM 69.1 °F 61.0 °F 75% 29.96 in 10.0 mi Calm Calm - 0.08 in   Mostly Cloudy
4:53 PM 72.0 °F 57.9 °F 61% 29.96 in 10.0 mi Calm Calm - 0.02 in   Mostly Cloudy
5:53 PM 73.9 °F 59.0 °F 59% 29.96 in 10.0 mi Calm Calm - N/A   Scattered Clouds
6:53 PM 73.0 °F 60.1 °F 64% 29.96 in 10.0 mi Calm Calm - N/A   Clear
7:53 PM 72.0 °F 57.9 °F 61% 29.96 in 10.0 mi Calm Calm - N/A   Clear
8:53 PM 64.0 °F 57.9 °F 80% 29.99 in 10.0 mi Calm Calm - N/A   Clear
9:53 PM 62.1 °F 55.9 °F 80% 30.01 in 10.0 mi Calm Calm - N/A   Clear
10:53 PM 62.1 °F 53.1 °F 72% 30.02 in 10.0 mi North 6.9 mph - N/A   Clear
11:53 PM 57.0 °F 48.0 °F 72% 30.03 in 10.0 mi NNE 6.9 mph - N/A   Clear